User: anonymous   Login
Location: Plymouth
(43.7570°N, 71.6890°W)
Time: 12:44:17
(UTC-04:00)
Language:

Cosmos 2016 Rocket - Orbit

View from above orbital plane
View from above orbital plane
View from above satellite
View from above satellite

Ground track
Ground track

The orbit data is extracted from the following two-line orbital elements,

1 19922U 89028B   17142.95574442 +.00000017 +00000-0 +22450-5 0  9991
2 19922 082.9597 085.5070 0035634 318.2776 041.5665 13.77200348413500
Epoch (UTC): 22 May 2017 22:56:16
Eccentricity: 0.0035634
inclination: 82.9597°
perigee height: 947 km
apogee height: 1000 km
right ascension of ascending node: 85.5070°
argument of perigee: 318.2776°
revolutions per day: 13.77200348
mean anomaly at epoch: 41.5665°
orbit number at epoch: 41350

The dashed part of the orbit path shows where the satellite is in the earth's shadow,  

DLR